| time (UTC) | temp F | wind direction | speed MPH | gust MPH | rain 1hr in | rain 24hr in | rain mn in | humidity % | barometer mb |
| 20260507210053 | 81 | 49 | 15.0 | 20.0 | 0.00 | 0.00 | 0.00 | 87 | 1009.2 |
| 20260507204559 | 81 | 45 | 17.0 | 21.0 | 0.00 | 0.00 | 0.00 | 87 | 1009.4 |
| 20260507203050 | 81 | 36 | 15.0 | 20.0 | 0.00 | 0.00 | 0.00 | 87 | 1009.8 |
| 20260507201604 | 81 | 31 | 17.0 | 21.0 | 0.00 | 0.00 | 0.00 | 86 | 1009.9 |
| 20260507200059 | 81 | 30 | 14.0 | 18.0 | 0.00 | 0.00 | 0.00 | 86 | 1009.9 |
| 20260507194548 | 82 | 45 | 13.0 | 17.0 | 0.00 | 0.00 | 0.00 | 85 | 1010.0 |
| 20260507193045 | 83 | 49 | 13.0 | 17.0 | 0.00 | 0.00 | 0.00 | 84 | 1010.1 |
| 20260507191549 | 83 | 44 | 13.0 | 18.0 | 0.00 | 0.00 | 0.00 | 84 | 1010.4 |
| 20260507190043 | 83 | 45 | 12.0 | 16.0 | 0.00 | 0.00 | 0.00 | 85 | 1010.5 |
| 20260507184542 | 83 | 40 | 11.0 | 13.0 | 0.00 | 0.00 | 0.00 | 84 | 1010.9 |
| 20260507183042 | 82 | 51 | 9.0 | 12.0 | 0.00 | 0.00 | 0.00 | 84 | 1010.9 |
| 20260507181540 | 82 | 52 | 9.0 | 11.0 | 0.00 | 0.00 | 0.00 | 84 | 1011.0 |
| 20260507180045 | 83 | 53 | 9.0 | 11.0 | 0.00 | 0.00 | 0.00 | 83 | 1011.1 |
| 20260507174539 | 83 | 51 | 7.0 | 10.0 | 0.00 | 0.00 | 0.00 | 84 | 1011.1 |
| 20260507173036 | 82 | 66 | 6.0 | 9.0 | 0.00 | 0.00 | 0.00 | 84 | 1011.2 |
| 20260507171532 | 82 | 61 | 0.0 | 0.0 | 0.00 | 0.00 | 0.00 | 85 | 1011.3 |
| 20260507170031 | 82 | 117 | 0.0 | 0.0 | 0.00 | 0.00 | 0.00 | 85 | 1011.4 |
| 20260507164529 | 81 | 116 | 0.0 | 0.0 | 0.00 | 0.00 | 0.00 | 86 | 1011.3 |
| 20260507163028 | 81 | 148 | 0.0 | 6.0 | 0.00 | 0.00 | 0.00 | 86 | 1011.5 |
| 20260507161527 | 81 | 98 | 0.0 | 0.0 | 0.00 | 0.00 | 0.00 | 87 | 1011.5 |
| 20260507160025 | 81 | 90 | 0.0 | 7.0 | 0.00 | 0.00 | 0.00 | 88 | 1011.3 |
| 20260507154524 | 81 | 152 | 0.0 | 7.0 | 0.00 | 0.00 | 0.00 | 88 | 1011.3 |
| 20260507153030 | 81 | 81 | 4.0 | 8.0 | 0.00 | 0.00 | 0.00 | 88 | 1011.3 |
| 20260507151521 | 81 | 80 | 3.0 | 9.0 | 0.00 | 0.00 | 0.00 | 88 | 1011.2 |
| 20260507150020 | 81 | 103 | 0.0 | 8.0 | 0.00 | 0.00 | 0.00 | 89 | 1011.2 |
| 20260507144520 | 81 | 90 | 4.0 | 8.0 | 0.00 | 0.00 | 0.00 | 89 | 1011.0 |
| 20260507143017 | 81 | 94 | 2.0 | 8.0 | 0.00 | 0.00 | 0.00 | 89 | 1010.9 |
| 20260507141515 | 81 | 74 | 5.0 | 10.0 | 0.00 | 0.00 | 0.00 | 89 | 1010.7 |
| 20260507140023 | 81 | 107 | 4.0 | 9.0 | 0.00 | 0.00 | 0.00 | 90 | 1010.6 |
| 20260507134512 | 80 | 84 | 4.0 | 8.0 | 0.00 | 0.00 | 0.00 | 90 | 1010.4 |
| 20260507133010 | 80 | 61 | 2.0 | 7.0 | 0.00 | 0.00 | 0.00 | 90 | 1010.2 |
| 20260507131508 | 80 | 83 | 0.0 | 7.0 | 0.00 | 0.00 | 0.00 | 90 | 1010.0 |
| 20260507130007 | 80 | 107 | 0.0 | 0.0 | 0.00 | 0.00 | 0.00 | 90 | 1010.1 |
| 20260507124512 | 80 | 103 | 0.0 | 0.0 | 0.00 | 0.00 | 0.00 | 90 | 1009.9 |
| 20260507123004 | 80 | 111 | 0.0 | 0.0 | 0.00 | 0.00 | 0.00 | 90 | 1009.6 |
| 20260507121501 | 80 | 69 | 0.0 | 0.0 | 0.00 | 0.00 | 0.00 | 90 | 1009.3 |
| 20260507120059 | 80 | 116 | 0.0 | 4.0 | 0.00 | 0.00 | 0.00 | 90 | 1009.1 |
| 20260507120001 | 80 | 94 | 0.0 | 5.0 | 0.00 | 0.00 | 0.00 | 90 | 1009.1 |
| 20260507114559 | 80 | 143 | 1.0 | 8.0 | 0.00 | 0.00 | 0.00 | 90 | 1008.8 |
| 20260507113058 | 80 | 176 | 2.0 | 10.0 | 0.00 | 0.00 | 0.00 | 90 | 1008.6 |
| 20260507111556 | 80 | 102 | 1.0 | 11.0 | 0.00 | 0.00 | 0.00 | 90 | 1008.1 |
| 20260507110058 | 80 | 101 | 4.0 | 10.0 | 0.00 | 0.00 | 0.00 | 90 | 1008.2 |
| 20260507104554 | 80 | 98 | 2.0 | 9.0 | 0.00 | 0.00 | 0.00 | 89 | 1008.5 |
| 20260507103051 | 80 | 101 | 5.0 | 10.0 | 0.00 | 0.00 | 0.00 | 89 | 1008.9 |
| 20260507101602 | 81 | 60 | 0.0 | 0.0 | 0.00 | 0.00 | 0.00 | 89 | 1009.1 |
| 20260507100049 | 81 | 63 | 0.0 | 0.0 | 0.00 | 0.00 | 0.00 | 89 | 1009.1 |
| 20260507094556 | 81 | 59 | 0.0 | 0.0 | 0.00 | 0.00 | 0.00 | 89 | 1009.2 |
| 20260507093047 | 81 | 63 | 0.0 | 0.0 | 0.00 | 0.00 | 0.00 | 89 | 1009.0 |
| 20260507091558 | 81 | 96 | 0.0 | 0.0 | 0.00 | 0.00 | 0.00 | 88 | 1008.9 |
| 20260507090106 | 81 | 115 | 0.0 | 0.0 | 0.00 | 0.00 | 0.00 | 88 | 1008.6 |
| 20260507084543 | 81 | 72 | 0.0 | 0.0 | 0.00 | 0.00 | 0.00 | 88 | 1008.7 |
| 20260507083043 | 81 | 133 | 0.0 | 0.0 | 0.00 | 0.00 | 0.00 | 88 | 1008.7 |
| 20260507081551 | 81 | 144 | 0.0 | 0.0 | 0.00 | 0.00 | 0.00 | 88 | 1009.0 |
| 20260507080040 | 81 | 127 | 0.0 | 0.0 | 0.00 | 0.00 | 0.00 | 87 | 1009.1 |
| 20260507074541 | 81 | 103 | 0.0 | 0.0 | 0.00 | 0.00 | 0.00 | 88 | 1009.0 |
| 20260507073053 | 81 | 175 | 0.0 | 0.0 | 0.00 | 0.00 | 0.00 | 87 | 1008.8 |
| 20260507071537 | 81 | 151 | 0.0 | 0.0 | 0.00 | 0.00 | 0.00 | 87 | 1008.9 |
| 20260507070053 | 81 | 192 | 0.0 | 0.0 | 0.00 | 0.00 | 0.00 | 87 | 1009.0 |
| 20260507064536 | 81 | 128 | 0.0 | 0.0 | 0.00 | 0.00 | 0.00 | 87 | 1009.0 |
| 20260507063036 | 81 | 149 | 0.0 | 0.0 | 0.00 | 0.00 | 0.00 | 87 | 1009.0 |
| 20260507061535 | 81 | 118 | 0.0 | 0.0 | 0.00 | 0.00 | 0.00 | 88 | 1009.0 |
| 20260507060034 | 81 | 147 | 0.0 | 0.0 | 0.00 | 0.00 | 0.00 | 88 | 1009.0 |
| 20260507054533 | 81 | 158 | 0.0 | 6.0 | 0.00 | 0.00 | 0.00 | 88 | 1009.0 |
| 20260507053034 | 81 | 98 | 0.0 | 8.0 | 0.00 | 0.00 | 0.00 | 88 | 1009.0 |
| 20260507051531 | 81 | 148 | 0.0 | 10.0 | 0.00 | 0.00 | 0.00 | 88 | 1009.0 |
| 20260507050032 | 81 | 164 | 2.0 | 10.0 | 0.00 | 0.00 | 0.00 | 88 | 1008.9 |
| 20260507044540 | 81 | 156 | 0.0 | 6.0 | 0.00 | 0.00 | 0.00 | 89 | 1008.8 |
| 20260507043024 | 81 | 143 | 0.0 | 7.0 | 0.00 | 0.00 | 0.00 | 88 | 1008.7 |
| 20260507041523 | 81 | 171 | 1.0 | 8.0 | 0.00 | 0.00 | 0.00 | 88 | 1008.6 |
| 20260507040023 | 81 | 113 | 1.0 | 8.0 | 0.00 | 0.00 | 0.00 | 89 | 1008.5 |
| 20260507034519 | 81 | 164 | 0.0 | 12.0 | 0.00 | 0.00 | 0.00 | 89 | 1008.2 |
| 20260507033017 | 81 | 133 | 1.0 | 7.0 | 0.00 | 0.00 | 0.00 | 89 | 1007.9 |
| 20260507031514 | 81 | 157 | 2.0 | 13.0 | 0.00 | 0.00 | 0.00 | 89 | 1007.6 |
| 20260507030013 | 81 | 117 | 1.0 | 8.0 | 0.00 | 0.00 | 0.00 | 89 | 1007.4 |
| 20260507024511 | 81 | 142 | 2.0 | 9.0 | 0.00 | 0.00 | 0.00 | 89 | 1007.2 |
| 20260507023011 | 81 | 147 | 2.0 | 9.0 | 0.00 | 0.00 | 0.00 | 88 | 1007.0 |
| 20260507021509 | 81 | 130 | 2.0 | 8.0 | 0.00 | 0.00 | 0.00 | 88 | 1006.9 |
| 20260507020009 | 81 | 123 | 3.0 | 10.0 | 0.00 | 0.00 | 0.00 | 88 | 1006.6 |
| 20260507014509 | 81 | 164 | 4.0 | 13.0 | 0.00 | 0.00 | 0.00 | 88 | 1006.4 |
| 20260507013008 | 81 | 149 | 4.0 | 14.0 | 0.00 | 0.00 | 0.00 | 88 | 1006.1 |
| 20260507011507 | 81 | 100 | 5.0 | 15.0 | 0.00 | 0.00 | 0.00 | 87 | 1005.9 |
| 20260507010008 | 82 | 75 | 3.0 | 12.0 | 0.00 | 0.00 | 0.00 | 86 | 1005.7 |
| 20260507004506 | 82 | 150 | 6.0 | 12.0 | 0.00 | 0.00 | 0.00 | 86 | 1005.6 |
| 20260507003005 | 82 | 120 | 4.0 | 14.0 | 0.00 | 0.00 | 0.00 | 85 | 1005.5 |
| 20260507001510 | 82 | 208 | 6.0 | 12.0 | 0.00 | 0.00 | 0.00 | 84 | 1005.4 |
| 20260507000004 | 83 | 127 | 6.0 | 13.0 | 0.00 | 0.00 | 0.00 | 83 | 1005.2 |
| 20260506234504 | 84 | 135 | 6.0 | 13.0 | 0.00 | 0.00 | 0.00 | 82 | 1005.1 |
| 20260506233003 | 85 | 128 | 4.0 | 10.0 | 0.00 | 0.00 | 0.00 | 81 | 1005.0 |
| 20260506231502 | 85 | 171 | 3.0 | 9.0 | 0.00 | 0.00 | 0.00 | 80 | 1004.8 |
| 20260506230002 | 86 | 24 | 3.0 | 11.0 | 0.00 | 0.00 | 0.00 | 80 | 1004.7 |
| 20260506224502 | 86 | 135 | 4.0 | 12.0 | 0.00 | 0.00 | 0.00 | 79 | 1004.7 |
| 20260506223101 | 86 | 112 | 3.0 | 10.0 | 0.00 | 0.00 | 0.00 | 79 | 1004.8 |
| 20260506221600 | 86 | 96 | 3.0 | 10.0 | 0.00 | 0.00 | 0.00 | 80 | 1004.8 |
| 20260506220100 | 86 | 107 | 6.0 | 12.0 | 0.00 | 0.00 | 0.00 | 78 | 1004.8 |
| 20260506214559 | 87 | 123 | 2.0 | 12.0 | 0.00 | 0.00 | 0.00 | 77 | 1004.7 |
| 20260506213058 | 88 | 138 | 4.0 | 14.0 | 0.00 | 0.00 | 0.00 | 76 | 1004.7 |
| 20260506211559 | 88 | 126 | 8.0 | 15.0 | 0.00 | 0.00 | 0.00 | 76 | 1004.6 |